Corinth, MS

4:10 AM CST on February 13, 2016 (GMT -0600)
Turner

Weather History for KCRX - October, 2012

Change the Weather History Date:

Friday, October 26, 2012

  Actual Average Record
Temperature  
Mean Temperature 50 °F -  
Max Temperature 59 °F 72 °F 90 °F (1931)
Min Temperature 42 °F 44 °F 28 °F (1982)
Degree Days  
Heating Degree Days 14    
Moisture  
Dew Point 47 °F    
Average Humidity 88    
Maximum Humidity 100    
Minimum Humidity 72    
Precipitation  
Precipitation 0.09 in - - ()
Sea Level Pressure  
Sea Level Pressure 30.09 in    
Wind  
Wind Speed 6 mph (NNW)    
Max Wind Speed 15 mph    
Max Gust Speed 21 mph    
Visibility 8 miles    
Events Rain    
Averages and records for this station are not official NWS values.
T = Trace of Precipitation, MM = Missing Value Source: NWS Daily Summary

Daily Weather History Graph

Daily Weather History Graph

Search for Another Location

Airport or City:

Trip Planner

Search our weather history database for the weather conditions in past years. The results will help you decide how hot, cold, wet, or windy it might be!

Date:

Astronomy

Oct. 26, 2012 Rise Set
Actual Time 7:10 AM CDT 6:05 PM CDT
Civil Twilight 6:44 AM CDT 6:31 PM CDT
Nautical Twilight 6:14 AM CDT 7:01 PM CDT
Astronomical Twilight 5:45 AM CDT 7:30 PM CDT
Moon 4:16 PM CDT (10/26) 4:12 AM CDT (10/26)
Length of Visible Light 11h 47m
Length of Day
10h 55m
Waxing Gibbous, 91% of the Moon is Illuminated
Oct 26
Waxing Gibbous
Oct 29
Full
Nov 6
Last Quarter
Nov 13
New
Nov 20
First Quarter

Hourly Weather History & Observations

Time (CDT) Temp. Windchill Dew Point Humidity Pressure Visibility Wind Dir Wind Speed Gust Speed Precip Events Conditions
12:05 AM 57.2 °F - 55.4 °F 94% 30.00 in 7.0 mi WNW 3.5 mph - N/A   Clear
12:45 AM 55.4 °F - 53.6 °F 94% 30.00 in 0.8 mi SE 4.6 mph - N/A   Mist
1:25 AM 55.4 °F - 53.6 °F 94% 29.99 in 3.0 mi Calm Calm - N/A   Clear
1:45 AM 55.4 °F - 53.6 °F 94% 29.99 in 4.0 mi Calm Calm - N/A   Clear
2:05 AM 55.4 °F - 53.6 °F 94% 29.99 in 1.5 mi Calm Calm - N/A   Clear
2:25 AM 53.6 °F - 53.6 °F 100% 30.00 in 2.0 mi Calm Calm - N/A   Clear
2:45 AM 55.4 °F - 53.6 °F 94% 29.99 in 1.2 mi Calm Calm - N/A   Clear
3:05 AM 53.6 °F - 51.8 °F 94% 29.99 in 3.0 mi Calm Calm - N/A   Mostly Cloudy
3:25 AM 53.6 °F - 53.6 °F 100% 30.00 in 5.0 mi NW 5.8 mph - N/A   Mostly Cloudy
3:45 AM 57.2 °F - 55.4 °F 94% 30.00 in 5.0 mi Calm Calm - N/A   Partly Cloudy
4:05 AM 57.2 °F - 55.4 °F 94% 30.01 in 4.0 mi Calm Calm - N/A   Clear
4:25 AM 57.2 °F - 55.4 °F 94% 30.01 in 4.0 mi NW 5.8 mph - N/A   Clear
4:45 AM 59.0 °F - 57.2 °F 94% 30.02 in 10.0 mi WNW 9.2 mph - N/A   Mostly Cloudy
5:05 AM 57.2 °F - 55.4 °F 94% 30.03 in 10.0 mi NW 6.9 mph - N/A   Mostly Cloudy
5:25 AM 57.2 °F - 53.6 °F 88% 30.02 in 10.0 mi NNW 5.8 mph - N/A   Partly Cloudy
5:45 AM 55.4 °F - 53.6 °F 94% 30.04 in 10.0 mi NW 8.1 mph - N/A   Scattered Clouds
6:05 AM 55.4 °F - 51.8 °F 88% 30.03 in 10.0 mi NNW 6.9 mph - N/A   Overcast
6:25 AM 55.4 °F - 50.0 °F 82% 30.05 in 10.0 mi North 6.9 mph - N/A   Mostly Cloudy
7:05 AM 53.6 °F - 50.0 °F 88% 30.06 in 10.0 mi NNW 8.1 mph - N/A   Overcast
7:25 AM 53.6 °F - 50.0 °F 88% 30.08 in 10.0 mi NNW 9.2 mph - N/A   Overcast
7:45 AM 53.6 °F - 48.2 °F 82% 30.09 in 10.0 mi NNW 8.1 mph - N/A   Overcast
8:05 AM 55.4 °F - 48.2 °F 77% 30.10 in 10.0 mi NNW 6.9 mph - N/A   Overcast
9:05 AM 55.4 °F - 48.2 °F 77% 30.12 in 10.0 mi North 10.4 mph - N/A   Overcast
9:45 AM 55.4 °F - 46.4 °F 72% 30.13 in 10.0 mi North 10.4 mph - N/A   Overcast
10:05 AM 55.4 °F - 46.4 °F 72% 30.13 in 10.0 mi North 8.1 mph - N/A   Overcast
10:25 AM 53.6 °F - 48.2 °F 82% 30.12 in 10.0 mi North 9.2 mph - N/A Rain Light Rain
11:05 AM 53.6 °F - 48.2 °F 82% 30.12 in 9.0 mi NNW 6.9 mph - N/A Rain Light Rain
11:25 AM 51.8 °F - 48.2 °F 88% 30.13 in 4.0 mi NNW 8.1 mph - 0.03 in Rain Rain
11:45 AM 51.8 °F - 48.2 °F 88% 30.11 in 5.0 mi North 10.4 mph 16.1 mph 0.07 in Rain Light Rain
12:05 PM 51.8 °F - 48.2 °F 88% 30.12 in 10.0 mi NNW 9.2 mph 16.1 mph N/A Rain Light Rain
12:25 PM 50.0 °F - 48.2 °F 94% 30.10 in 10.0 mi North 12.7 mph 16.1 mph N/A Rain Light Rain
1:05 PM 50.0 °F - 48.2 °F 94% 30.11 in 10.0 mi North 9.2 mph - N/A   Overcast
1:25 PM 50.0 °F - 46.4 °F 87% 30.11 in 10.0 mi NNE 11.5 mph 18.4 mph N/A   Overcast
1:45 PM 50.0 °F - 46.4 °F 87% 30.11 in 10.0 mi NNW 13.8 mph 18.4 mph N/A   Overcast
2:05 PM 50.0 °F - 46.4 °F 87% 30.10 in 10.0 mi North 11.5 mph - N/A   Overcast
2:45 PM 50.0 °F - 46.4 °F 87% 30.09 in 10.0 mi North 10.4 mph 17.3 mph N/A   Overcast
3:05 PM 50.0 °F - 46.4 °F 87% 30.09 in 10.0 mi North 11.5 mph - N/A   Overcast
3:25 PM 50.0 °F - 44.6 °F 82% 30.10 in 10.0 mi North 12.7 mph 20.7 mph N/A   Overcast
3:45 PM 48.2 °F - 44.6 °F 87% 30.10 in 10.0 mi North 11.5 mph - N/A   Overcast
4:05 PM 48.2 °F - 44.6 °F 87% 30.10 in 9.0 mi NNW 12.7 mph - N/A   Overcast
4:25 PM 46.4 °F 40.1 °F 44.6 °F 93% 30.10 in 10.0 mi North 15.0 mph 18.4 mph N/A   Overcast
4:45 PM 46.4 °F 40.4 °F 44.6 °F 93% 30.10 in 10.0 mi North 13.8 mph 17.3 mph N/A   Overcast
5:05 PM 46.4 °F 41.1 °F 42.8 °F 87% 30.11 in 8.0 mi North 11.5 mph 19.6 mph N/A Rain Light Rain
5:25 PM 46.4 °F 41.5 °F 42.8 °F 87% 30.12 in 3.0 mi North 10.4 mph - N/A Rain Light Rain
5:45 PM 44.6 °F 39.2 °F 42.8 °F 93% 30.12 in 5.0 mi North 10.4 mph 17.3 mph 0.01 in Rain Light Rain
6:05 PM 44.6 °F 38.1 °F 41.0 °F 87% 30.12 in 5.0 mi North 13.8 mph 19.6 mph N/A Rain Light Rain
6:25 PM 44.6 °F 38.8 °F 41.0 °F 87% 30.13 in 10.0 mi North 11.5 mph 18.4 mph N/A Rain Light Rain
6:45 PM 44.6 °F 39.2 °F 41.0 °F 87% 30.13 in 10.0 mi North 10.4 mph 17.3 mph N/A   Overcast
7:05 PM 44.6 °F 38.8 °F 41.0 °F 87% 30.13 in 10.0 mi North 11.5 mph - N/A Rain Light Rain
7:25 PM 44.6 °F 39.2 °F 41.0 °F 87% 30.14 in 10.0 mi North 10.4 mph 16.1 mph N/A   Overcast
7:45 PM 44.6 °F 40.2 °F 41.0 °F 87% 30.14 in 10.0 mi North 8.1 mph 16.1 mph N/A   Overcast
8:00 PM 44.6 °F 39.2 °F 41.0 °F 87% 30.15 in 10.0 mi North 10.4 mph 18.4 mph N/A   Overcast
8:25 PM 44.6 °F 39.7 °F 41.0 °F 87% 30.15 in 4.0 mi North 9.2 mph - N/A Rain Light Rain
8:45 PM 44.6 °F 39.7 °F 41.0 °F 87% 30.16 in 3.0 mi North 9.2 mph - N/A Rain Light Rain
9:05 PM 44.6 °F 39.2 °F 41.0 °F 87% 30.16 in 5.0 mi North 10.4 mph 16.1 mph N/A Rain Light Rain
9:25 PM 44.6 °F 39.7 °F 41.0 °F 87% 30.16 in 9.0 mi North 9.2 mph - N/A Rain Light Rain
9:45 PM 44.6 °F 39.2 °F 41.0 °F 87% 30.16 in 5.0 mi North 10.4 mph 17.3 mph N/A Rain Light Rain
10:05 PM 42.8 °F 38.6 °F 41.0 °F 93% 30.16 in 5.0 mi North 6.9 mph - N/A Rain Light Rain
10:25 PM 44.6 °F 39.7 °F 41.0 °F 87% 30.15 in 7.0 mi North 9.2 mph - N/A   Overcast
10:40 PM 44.6 °F 40.2 °F 41.0 °F 87% 30.15 in 7.0 mi North 8.1 mph - 0.01 in Rain Light Rain
11:05 PM 44.6 °F 40.2 °F 41.0 °F 87% 30.14 in 10.0 mi North 8.1 mph - N/A   Overcast
11:45 PM 44.6 °F 39.2 °F 41.0 °F 87% 30.14 in 10.0 mi North 10.4 mph - N/A   Overcast